Regional Weather Roundup
Issued by NWS

Home | Current Version | Previous Version | Text Only | Print | Product List | Glossary Off
Versions: 1 2 3 4 5 6 7 8 9 10 11 12 13 14 15 16 17 18 19 20 21 22 23 24 25 26 27 28 29 30 31 32 33 34 35 36 37 38 39 40 41 42 43 44 45 46 47 48 49 50

589
ASUS43 KLOT 272209
RWRIL

ILLINOIS REGIONAL WEATHER ROUNDUP
NATIONAL WEATHER SERVICE CHICAGO/ROMEOVILLE IL
500 PM CDT WED JUL 27 2016

NOTE: "FAIR" INDICATES FEW OR NO CLOUDS BELOW 12,000 FEET WITH NO
SIGNIFICANT WEATHER AND/OR OBSTRUCTIONS TO VISIBILITY.

* THESE STATIONS ARE NOT UNDER NWS QUALITY CONTROL. THEY ALSO MAY NOT
  REPORT WEATHER SUCH AS PRECIPITATION OR FOG.

ILZ001-002-007-009-015-016-024-272300-
NORTHWEST ILLINOIS

CITY           SKY/WX    TMP DP  RH WIND       PRES   REMARKS
MOLINE         SUNNY     86  68  54 S7        29.92F HX  89
SAVANNA*       SUNNY     85  69  58 SW6       29.93F HX  89
$$

ILZ003-004-008-010-011-017-018-272300-
NORTH CENTRAL ILLINOIS

CITY           SKY/WX    TMP DP  RH WIND       PRES   REMARKS
ROCKFORD       PTSUNNY   86  67  52 S5        29.95F HX  89
FREEPORT*      MOSUNNY   84  67  57 S5        29.97F HX  86
ROCHELLE*      MOSUNNY   84  71  65 CALM      29.96S HX  89
DE KALB*       MOSUNNY   82  70  66 S6        29.97S HX  86
$$

ILZ005-006-012>014-019>023-272300-
NORTHEAST ILLINOIS

CITY           SKY/WX    TMP DP  RH WIND       PRES   REMARKS
CHICAGO-OHARE  PTSUNNY   88  62  41 SW9       29.93S HX  88
CHICAGO-MIDWAY MOSUNNY   89  63  41 SW10      29.93S HX  90
AURORA         MOSUNNY   85  69  58 SW6       29.95F HX  89
LANSING*       MOSUNNY   86  64  47 SW7       29.94F HX  88
JOLIET*        SUNNY     87  68  52 S5        29.94S HX  90
WAUKEGAN       PTSUNNY   82  67  60 SE7       29.94F HX  84
DUPAGE AIRPORT SUNNY     87  66  49 W7        29.94F HX  89
KANKAKEE*      SUNNY     88  66  48 S6        29.95S HX  90
WHEELING       MOSUNNY   85  64  49 E9        29.95S HX  86
MORRIS*        MOSUNNY   85  68  56 W3        29.94S HX  88
ROMEOVILLE*    SUNNY     86  67  53 W3        29.95S HX  89
NORTHERLY ISL    N/A     79  71  76 NE3         N/A  HX  82
$$

LMZ740>746-272300-
SOUTHERN LAKE MICHIGAN

STATION/POSITION SKY/WX   TEMP    WIND        PRES    VSBY  WAVE
                          AIR SEA DIR/SP/G                  HT/PER
                          (F)     (DEG/KT/KT) (MB)    (MI)  (FT/S)
SOUTHERN BUOY              78 78  150/  4/  4 1013.6S
WILMETTE HARBOR            77 72  120/  6/  6   N/A           1
HARRISON CRIB              80      90/ 10/ 10   N/A
BURNHAM HARBOR             81      10/  3/  8   N/A
CALUMET HARBOR             82      80/  8/ 11 1013.3F
BURNS HARBOR               80      60/ 10/ 11 1014.6F
MICHIGAN CITY              78      40/ 10/ 10   N/A
MICHIGAN CITY 6N           79 78   60/  8/  8   N/A           0
ST. JOSEPH                 78 80   20/  8/  8 1013.8F         0
$$

ILZ025>027-034>036-040-047-049-050-058-095>099-272300-
WEST-CENTRAL ILLINOIS

CITY           SKY/WX    TMP DP  RH WIND       PRES   REMARKS
QUINCY         PTSUNNY   88  73  61 SE7       29.92F HX  95
GALESBURG*     SUNNY     86  68  55 CALM      29.94F HX  89
MACOMB*        MOSUNNY   85  72  63 CALM      29.96S HX  91
JACKSONVILLE*  SUNNY     84  74  72 E9        29.93S HX  91
PITTSFIELD*    PTSUNNY   86  76  71 E3        29.93S HX  96
$$

ILZ028>032-037-038-041>044-048-051>054-059>061-272300-
CENTRAL ILLINOIS

CITY           SKY/WX    TMP DP  RH WIND       PRES   REMARKS
PONTIAC        PTSUNNY   86  72  62 S5        29.96S HAZE    HX  92
BLOOMINGTON    PTSUNNY   84  69  60 E7        29.96F HX  88
DECATUR        MOSUNNY   86  72  62 E6        29.94F HX  92
PEORIA         PTSUNNY   85  70  60 VRB5      29.94S HX  89
LACON*         MOSUNNY   86  67  53 S3        29.93F HX  88
LINCOLN*       MOSUNNY   85  75  70 SE5       29.94S HX  94
SPRINGFIELD    SUNNY     85  74  69 SE8       29.94S HX  92
TAYLORVILLE    MOSUNNY   82  75  77 MISG      29.94F HX  89
$$

ILZ033-039-045-046-055>057-062-063-272300-
EAST-CENTRAL ILLINOIS

CITY           SKY/WX    TMP DP  RH WIND       PRES   REMARKS
CHAMPAIGN      CLOUDY    84  71  65 E6        29.95F HX  89
MATTOON        PTSUNNY   84  73  69 CALM      29.94F HX  90
PARIS*         CLOUDY    82  75  81 CALM      29.96F HX  88
$$

ILZ079-100>102-272300-
SOUTHWEST ILLINOIS

CITY           SKY/WX    TMP DP  RH WIND       PRES   REMARKS
ALTON          PTSUNNY   86  72  62 E5        29.92F HX  92
BELLEVILLE     CLOUDY    85  76  74 E1        29.90F HX  94
CAHOKIA*       CLOUDY    86  73  65 S5        29.90F HX  93
SPARTA*        PTSUNNY   83  77  81 N3        29.93F HX  91
$$

ILZ064>066-069>071-074>076-080>082-084>086-088>090-092>094-272300-
SOUTH-CENTRAL ILLINOIS

CITY           SKY/WX    TMP DP  RH WIND       PRES   REMARKS
CARBONDALE     SUNNY     88  76  67 N7        29.90F HX  99
CAIRO*         MOSUNNY   85  74  71 NE9       29.88F HX  92
EFFINGHAM*     CLOUDY    84  75  74 SE5       29.94F HX  92
MARION         PTSUNNY   88  79  74 N12       29.91F HX 102
MT. VERNON     MOSUNNY   88  73  62 MISG      29.91F HX  96
CENTRALIA*     PTSUNNY   86  77  74 CALM      29.92F HX  97
SALEM*         CLOUDY    87  75  67 CALM      29.93F HX  95
METROPOLIS*    TSTM      78  75  90 CALM      29.91S HX  81
$$

ILZ067-068-072-073-078-083-087-091-272300-
SOUTHEAST ILLINOIS

CITY           SKY/WX    TMP DP  RH WIND       PRES   REMARKS
LAWRENCEVILLE  CLOUDY    86  74  67 NE6       29.94S HX  94
FLORA*         MOSUNNY   87  76  70 N3        29.93F HX  96
FAIRFIELD*     CLOUDY    85  76  73 NE5       29.91F HX  95
HARRISBURG*    CLOUDY    81  75  82 N6        29.91F HX  87
ROBINSON*      CLOUDY    87  73  63 E3        29.94F HX  94
CARMI*         TSTM      77  76  97 W6        29.92S
$$

ABBREVIATIONS USED IN REMARKS
   TC - TEMPERATURE IN CELSIUS
  WCI - WIND CHILL INDEX
   HX - HEAT INDEX
  VSB - VISIBILITY
$$





USA.gov is the U.S. government's official web portal to all federal, state and local government web resources and services.